Tracking 30995 objects as of 7-Jul-2025
HD Live streaming from Space Station
objects crossing your sky now

COSMOS 2340

Track COSMOS 2340 now!
COSMOS 2340 is classified as:


NORAD ID: 24761
Int'l Code: 1997-015A
Perigee: 2,732.4 km
Apogee: 37,670.1 km
Inclination: 65.3 °
Period: 718.5 minutes
Semi major axis: 26572 km
RCS: 6.3095 m2 (large)
Launch date: April 9, 1997
Source: Commonwealth of Independent States (former USSR) (CIS)
Launch site: PLESETSK MISSILE AND SPACE COMPLEX (PKMTR)
Your satellite tracking list
STARLINK-1624
Track 1 satellite(s)




NASA's NSSDC Master Catalog

Two Line Element Set (TLE):
1 24761U 97015A   25186.49638006  .00000875  00000-0  00000-0 0  9990
2 24761  65.2631 178.7932 6574113 156.0847 258.9570  2.00429026206885
Source of the keplerian elements: AFSPC